GFSMW_prec_precacc_285.txt.gz
Total_Precipitation_Accumulation
1.01 1.24 0.89 0.81 0.91 0.85 0.88 0.71 0.61 0.72 0.95 1.11 0.99 0.99 1.26 1.72 1.88 1.43 1.19 1.13 1.06 1.07 1.00 0.83 0.69 0.52 0.34 0.26 0.26 0.34 0.53 0.74 0.71 0.63 0.48 0.32 0.22 0.24 0.29 0.31 0.32 0.31 0.28
0.89 1.29 1.70 0.90 0.88 1.50 1.77 1.37 1.11 1.01 0.94 1.07 1.00 0.90 1.00 1.20 1.63 1.90 1.50 1.43 1.38 1.29 1.05 0.89 0.88 0.75 0.68 0.60 0.60 0.53 0.56 0.60 0.77 0.76 0.61 0.51 0.43 0.36 0.20 0.16 0.19 0.23 0.27
0.60 1.05 1.84 1.39 1.25 1.72 1.87 1.62 1.51 1.54 1.46 1.48 1.88 1.58 1.60 1.48 1.70 2.11 1.91 1.78 1.54 1.46 1.65 1.97 1.65 1.14 1.16 1.26 1.30 1.36 1.34 1.14 0.92 0.81 0.87 0.61 0.42 0.32 0.36 0.25 0.21 0.21 0.21
0.38 0.60 0.95 1.32 1.45 1.02 1.03 1.53 2.55 2.98 2.12 1.91 2.77 3.41 3.11 2.94 2.71 2.93 2.66 2.11 1.84 1.72 1.88 2.22 2.82 3.28 2.84 2.01 1.71 1.57 1.43 1.53 1.39 1.35 1.09 0.91 0.65 0.49 0.35 0.25 0.29 0.35 0.38
0.34 0.35 0.56 0.83 0.79 0.73 0.77 0.94 1.48 2.35 2.43 2.47 2.68 3.18 3.05 2.43 2.15 2.20 2.78 2.81 2.55 2.09 1.89 1.93 2.04 2.04 2.23 2.70 2.47 2.01 1.90 1.79 1.55 1.30 1.07 0.97 0.92 0.93 0.82 0.46 0.27 0.29 0.35
0.16 0.32 0.31 0.46 0.55 0.66 0.78 0.69 1.00 1.46 2.17 2.43 2.43 2.64 2.88 3.15 2.70 2.19 2.40 2.27 1.89 1.85 1.74 1.58 1.49 1.50 1.53 1.63 1.99 2.01 1.74 1.66 1.72 1.68 1.57 1.30 1.21 1.00 1.13 1.04 0.67 0.58 0.44
0.30 0.37 0.59 0.56 0.66 0.78 0.60 0.61 0.89 1.03 1.50 1.69 2.08 2.20 1.79 2.04 2.12 1.97 1.93 2.04 2.00 1.76 1.68 1.56 1.60 1.51 1.52 1.56 1.64 1.77 1.70 1.53 1.41 1.37 1.42 1.61 1.63 1.55 1.56 1.55 1.16 0.83 0.54
0.55 0.51 0.81 1.02 1.05 0.88 0.85 0.56 0.82 0.91 0.90 0.91 0.97 1.35 1.58 1.95 1.87 1.68 1.58 1.55 1.45 1.56 1.90 1.82 1.79 1.87 1.85 1.83 1.85 1.87 1.88 1.79 1.72 1.74 1.68 1.62 1.64 1.83 1.97 2.04 2.09 1.93 1.21
0.91 0.79 0.86 1.20 1.12 0.89 0.99 0.92 0.88 0.98 0.81 0.84 0.54 0.48 0.57 0.70 0.85 0.90 0.91 1.02 1.29 1.22 1.34 1.47 1.39 1.41 1.44 1.41 1.49 1.50 1.45 1.59 1.67 1.58 1.51 1.51 1.37 1.42 1.59 1.90 2.33 2.97 2.66
1.11 0.97 0.90 0.92 0.86 0.72 0.88 0.94 0.81 0.61 0.57 0.66 0.59 0.25 0.28 0.32 0.39 0.31 0.28 0.30 0.45 0.61 0.72 0.85 0.91 0.98 1.06 1.21 1.31 1.32 1.39 1.52 1.58 1.64 1.72 1.71 1.67 1.66 1.51 1.49 1.72 2.06 2.53
0.84 0.76 0.69 0.63 0.58 0.42 0.60 0.85 0.73 0.61 0.51 0.56 0.72 0.45 0.34 0.32 0.34 0.28 0.13 0.14 0.13 0.16 0.18 0.18 0.27 0.35 0.40 0.54 0.76 0.92 1.10 1.31 1.53 1.85 2.12 2.26 2.34 2.49 2.47 2.58 2.75 2.91 3.13
0.56 0.54 0.56 0.53 0.34 0.47 0.71 1.23 1.11 0.76 0.50 0.51 0.58 0.73 0.57 0.47 0.41 0.39 0.21 0.17 0.19 0.20 0.19 0.18 0.20 0.25 0.27 0.28 0.27 0.33 0.41 0.51 0.63 0.86 1.11 1.21 1.34 1.58 1.69 1.90 2.10 2.45 2.93
0.23 0.31 0.45 0.76 0.26 0.49 0.80 1.23 1.16 0.77 0.53 0.58 0.54 0.71 0.94 0.77 0.66 0.48 0.39 0.27 0.30 0.39 0.58 0.41 0.34 0.31 0.28 0.24 0.27 0.32 0.42 0.54 0.65 0.75 0.82 0.94 1.04 1.07 1.09 1.15 1.24 1.31 1.46
0.24 0.27 0.17 0.17 0.29 0.79 0.95 0.96 1.27 1.09 0.86 0.75 0.70 0.65 0.98 0.95 0.86 0.69 0.66 0.55 0.48 0.48 0.64 1.03 0.64 0.58 0.56 0.49 0.39 0.38 0.40 0.47 0.63 0.65 0.71 0.75 0.92 1.09 1.25 1.58 1.76 1.63 1.56
0.15 0.14 0.14 0.22 0.31 1.05 0.98 1.23 1.26 1.55 1.35 1.03 0.97 0.89 0.68 0.92 0.82 0.67 0.87 0.78 0.62 0.68 0.60 0.63 0.68 0.60 0.52 0.72 0.65 0.55 0.62 0.62 0.83 1.16 1.14 1.27 1.36 1.47 1.35 1.17 1.08 1.22 1.25
0.13 0.10 0.17 0.24 0.33 0.75 0.96 0.98 1.47 1.91 1.70 1.44 1.16 1.04 0.67 0.78 0.92 0.87 0.87 0.78 0.72 0.87 0.70 0.73 0.67 0.65 0.74 1.29 1.28 1.05 0.99 1.03 0.96 1.35 1.48 1.47 1.75 1.35 1.36 1.32 1.25 1.19 1.20
0.14 0.13 0.21 0.60 0.36 0.58 0.91 1.14 1.44 1.56 1.74 1.99 1.60 1.15 0.70 0.71 0.67 0.57 0.59 0.54 0.59 0.75 0.76 0.71 0.81 0.74 0.83 1.30 1.37 1.22 0.82 0.97 1.11 0.94 0.95 0.79 0.82 0.89 0.71 0.83 0.81 0.76 0.70
0.15 0.40 0.59 0.60 0.40 0.76 1.31 1.19 1.52 1.20 1.45 2.02 1.77 1.46 1.12 0.99 0.93 0.80 0.80 0.66 0.70 0.80 0.85 0.86 1.06 1.19 1.44 1.50 1.45 1.34 0.84 0.75 0.86 0.66 0.52 0.44 0.42 0.46 0.41 0.44 0.50 0.52 0.48
0.49 0.49 0.64 0.75 0.59 0.66 0.94 0.98 1.14 1.33 1.68 2.14 2.15 1.91 1.58 1.52 1.62 1.68 1.45 1.24 1.21 1.21 1.22 1.09 1.07 1.12 1.36 1.30 1.36 0.98 0.77 0.66 0.62 0.49 0.38 0.34 0.27 0.38 0.35 0.31 0.35 0.36 0.34
0.51 0.70 0.91 0.92 0.71 0.68 0.87 1.36 1.90 1.74 1.70 1.62 1.68 1.66 1.56 1.31 1.29 1.21 1.35 1.28 1.15 1.13 1.12 1.06 0.97 0.99 0.88 1.03 1.08 0.96 0.61 0.45 0.41 0.27 0.22 0.27 0.28 0.38 0.31 0.26 0.18 0.21 0.15
0.43 0.47 0.66 0.76 0.72 0.82 1.34 1.65 1.77 1.77 1.73 1.73 1.57 1.42 1.25 1.34 1.21 1.16 1.01 1.02 0.90 0.76 0.74 0.67 0.60 0.47 0.41 0.42 0.56 0.48 0.36 0.33 0.29 0.18 0.11 0.10 0.25 0.40 0.40 0.36 0.20 0.20 0.20
0.30 0.20 0.47 0.98 1.20 1.10 1.17 1.10 1.09 1.08 0.91 0.96 0.85 0.91 0.81 0.80 0.84 0.65 0.70 0.68 0.59 0.52 0.43 0.38 0.31 0.26 0.28 0.38 0.51 0.46 0.28 0.24 0.16 0.11 0.05 0.09 0.24 0.40 0.37 0.30 0.22 0.22 0.22
0.22 0.10 0.17 0.22 0.36 0.43 0.42 0.50 0.55 0.54 0.56 0.56 0.53 0.60 0.57 0.48 0.44 0.39 0.37 0.38 0.33 0.30 0.31 0.33 0.34 0.37 0.39 0.40 0.49 0.43 0.30 0.25 0.14 0.07 0.10 0.17 0.27 0.39 0.32 0.21 0.18 0.16 0.14
0.06 0.08 0.11 0.16 0.25 0.29 0.33 0.31 0.21 0.27 0.39 0.55 0.56 0.59 0.48 0.50 0.42 0.38 0.38 0.42 0.48 0.51 0.49 0.46 0.41 0.37 0.38 0.39 0.41 0.48 0.37 0.27 0.16 0.08 0.11 0.20 0.33 0.40 0.34 0.23 0.16 0.12 0.15
0.08 0.12 0.19 0.22 0.22 0.22 0.32 0.36 0.30 0.30 0.37 0.41 0.42 0.39 0.30 0.35 0.37 0.44 0.48 0.45 0.37 0.45 0.51 0.48 0.41 0.42 0.37 0.37 0.57 0.54 0.42 0.33 0.33 0.42 0.26 0.27 0.30 0.33 0.29 0.23 0.18 0.22 0.29
0.08 0.06 0.13 0.23 0.34 0.41 0.44 0.43 0.39 0.37 0.35 0.32 0.28 0.34 0.28 0.27 0.26 0.25 0.40 0.63 0.58 0.57 0.48 0.48 0.58 0.53 0.52 0.54 0.56 0.51 0.49 0.49 0.48 0.47 0.32 0.28 0.31 0.29 0.28 0.29 0.31 0.31 0.39

GFSMW_prec_precacc_288.txt.gz
Total_Precipitation_Accumulation
1.01 1.24 0.89 0.81 0.91 0.85 0.88 0.71 0.61 0.72 0.95 1.11 0.99 0.99 1.26 1.72 1.88 1.43 1.19 1.13 1.06 1.07 1.00 0.83 0.69 0.52 0.34 0.26 0.26 0.34 0.53 0.74 0.71 0.63 0.48 0.32 0.22 0.24 0.29 0.31 0.32 0.31 0.28
0.89 1.29 1.70 0.90 0.88 1.50 1.77 1.37 1.11 1.01 0.94 1.07 1.00 0.90 1.00 1.20 1.63 1.90 1.50 1.43 1.38 1.29 1.05 0.89 0.88 0.75 0.68 0.60 0.60 0.53 0.56 0.60 0.77 0.76 0.61 0.51 0.43 0.36 0.20 0.16 0.19 0.23 0.27
0.60 1.05 1.84 1.39 1.25 1.72 1.87 1.62 1.51 1.54 1.46 1.48 1.88 1.58 1.60 1.48 1.70 2.11 1.91 1.78 1.54 1.46 1.65 1.97 1.65 1.14 1.16 1.26 1.30 1.36 1.34 1.14 0.92 0.81 0.87 0.61 0.42 0.32 0.36 0.25 0.21 0.21 0.21
0.38 0.60 0.95 1.32 1.45 1.02 1.03 1.53 2.55 2.98 2.12 1.91 2.77 3.41 3.11 2.94 2.71 2.93 2.66 2.11 1.84 1.72 1.88 2.22 2.82 3.28 2.84 2.01 1.71 1.57 1.43 1.53 1.39 1.35 1.09 0.91 0.65 0.49 0.35 0.25 0.29 0.35 0.38
0.34 0.35 0.56 0.83 0.79 0.73 0.77 0.94 1.48 2.35 2.43 2.47 2.68 3.18 3.05 2.43 2.15 2.20 2.78 2.81 2.55 2.09 1.89 1.93 2.04 2.04 2.23 2.70 2.47 2.01 1.90 1.79 1.55 1.30 1.07 0.97 0.92 0.93 0.82 0.46 0.27 0.29 0.35
0.16 0.32 0.31 0.46 0.55 0.66 0.78 0.69 1.00 1.46 2.17 2.43 2.43 2.64 2.88 3.15 2.70 2.20 2.40 2.27 1.90 1.85 1.74 1.58 1.49 1.50 1.53 1.63 1.99 2.01 1.74 1.66 1.72 1.68 1.57 1.30 1.21 1.00 1.13 1.04 0.67 0.58 0.44
0.30 0.37 0.59 0.56 0.66 0.78 0.60 0.61 0.89 1.03 1.50 1.69 2.08 2.20 1.79 2.04 2.13 1.98 1.93 2.04 2.00 1.76 1.68 1.56 1.60 1.51 1.52 1.56 1.64 1.77 1.70 1.53 1.41 1.37 1.42 1.61 1.63 1.55 1.56 1.55 1.16 0.83 0.54
0.55 0.51 0.81 1.02 1.05 0.88 0.85 0.56 0.82 0.91 0.90 0.91 0.97 1.35 1.58 1.95 1.88 1.68 1.58 1.55 1.45 1.56 1.90 1.82 1.79 1.87 1.85 1.83 1.85 1.87 1.88 1.79 1.72 1.74 1.68 1.62 1.64 1.83 1.97 2.04 2.09 1.93 1.21
0.91 0.79 0.86 1.20 1.12 0.89 0.99 0.92 0.88 0.98 0.81 0.84 0.54 0.48 0.57 0.70 0.85 0.90 0.91 1.02 1.29 1.22 1.34 1.47 1.39 1.41 1.44 1.41 1.49 1.50 1.45 1.59 1.67 1.58 1.51 1.51 1.37 1.42 1.59 1.90 2.33 2.97 2.66
1.11 0.97 0.90 0.92 0.86 0.72 0.88 0.94 0.81 0.61 0.57 0.66 0.59 0.25 0.28 0.32 0.39 0.31 0.28 0.30 0.45 0.61 0.72 0.85 0.91 0.98 1.06 1.21 1.31 1.32 1.39 1.52 1.58 1.64 1.72 1.71 1.67 1.66 1.51 1.49 1.72 2.06 2.53
0.84 0.76 0.69 0.63 0.58 0.42 0.60 0.85 0.73 0.61 0.51 0.56 0.72 0.45 0.34 0.32 0.34 0.28 0.13 0.14 0.13 0.16 0.18 0.18 0.27 0.35 0.40 0.54 0.76 0.92 1.10 1.31 1.53 1.85 2.12 2.26 2.34 2.49 2.47 2.58 2.75 2.91 3.13
0.56 0.54 0.56 0.53 0.34 0.47 0.71 1.23 1.11 0.76 0.50 0.51 0.58 0.73 0.57 0.47 0.41 0.39 0.21 0.17 0.19 0.20 0.19 0.18 0.20 0.25 0.27 0.28 0.27 0.33 0.41 0.51 0.63 0.86 1.11 1.21 1.34 1.58 1.69 1.90 2.10 2.45 2.93
0.23 0.31 0.45 0.76 0.26 0.49 0.80 1.23 1.16 0.77 0.53 0.58 0.54 0.71 0.94 0.77 0.66 0.48 0.39 0.27 0.30 0.39 0.58 0.41 0.34 0.31 0.28 0.24 0.27 0.32 0.42 0.54 0.65 0.75 0.82 0.94 1.05 1.08 1.09 1.16 1.26 1.35 1.50
0.24 0.27 0.17 0.17 0.29 0.79 0.95 0.96 1.27 1.09 0.86 0.75 0.70 0.65 0.98 0.95 0.86 0.69 0.66 0.55 0.48 0.48 0.64 1.03 0.64 0.58 0.56 0.49 0.39 0.38 0.40 0.47 0.63 0.65 0.72 0.77 0.94 1.13 1.29 1.64 1.84 1.71 1.62
0.15 0.14 0.14 0.22 0.31 1.05 0.98 1.23 1.26 1.55 1.35 1.03 0.97 0.89 0.68 0.92 0.82 0.67 0.87 0.78 0.62 0.68 0.60 0.63 0.68 0.60 0.52 0.72 0.65 0.55 0.62 0.62 0.84 1.17 1.16 1.29 1.41 1.56 1.44 1.26 1.16 1.29 1.31
0.13 0.10 0.17 0.24 0.33 0.75 0.96 0.98 1.47 1.91 1.70 1.44 1.16 1.04 0.67 0.78 0.92 0.87 0.87 0.78 0.72 0.87 0.70 0.73 0.67 0.65 0.74 1.29 1.28 1.05 1.00 1.03 0.96 1.35 1.49 1.51 1.84 1.45 1.48 1.43 1.33 1.26 1.24
0.14 0.13 0.21 0.60 0.36 0.58 0.91 1.14 1.44 1.56 1.74 1.99 1.60 1.15 0.70 0.71 0.67 0.57 0.59 0.54 0.59 0.75 0.76 0.71 0.81 0.74 0.83 1.30 1.37 1.22 0.82 0.97 1.11 0.96 0.99 0.85 0.92 1.02 0.83 0.94 0.89 0.81 0.72
0.15 0.40 0.59 0.60 0.40 0.76 1.31 1.19 1.52 1.20 1.45 2.02 1.77 1.46 1.12 0.99 0.93 0.80 0.80 0.66 0.70 0.80 0.85 0.86 1.06 1.19 1.44 1.50 1.45 1.34 0.84 0.77 0.88 0.68 0.57 0.52 0.52 0.60 0.53 0.52 0.55 0.53 0.48
0.49 0.49 0.64 0.75 0.59 0.66 0.94 0.98 1.14 1.33 1.68 2.14 2.15 1.91 1.58 1.52 1.62 1.68 1.45 1.24 1.21 1.21 1.22 1.09 1.07 1.12 1.36 1.30 1.36 0.99 0.77 0.68 0.64 0.54 0.49 0.49 0.42 0.57 0.48 0.38 0.37 0.37 0.34
0.51 0.70 0.91 0.92 0.71 0.68 0.87 1.36 1.90 1.74 1.70 1.62 1.68 1.66 1.56 1.31 1.29 1.21 1.35 1.28 1.15 1.13 1.12 1.06 0.97 0.99 0.88 1.03 1.08 0.96 0.62 0.48 0.47 0.39 0.40 0.52 0.55 0.64 0.41 0.28 0.19 0.21 0.15
0.43 0.47 0.66 0.76 0.72 0.82 1.34 1.65 1.77 1.77 1.73 1.73 1.57 1.42 1.25 1.34 1.21 1.16 1.01 1.02 0.90 0.76 0.74 0.67 0.60 0.47 0.41 0.42 0.57 0.49 0.40 0.41 0.39 0.29 0.26 0.28 0.43 0.52 0.43 0.38 0.22 0.21 0.20
0.30 0.20 0.47 0.98 1.20 1.10 1.17 1.10 1.09 1.08 0.91 0.96 0.85 0.91 0.81 0.80 0.84 0.65 0.70 0.68 0.59 0.52 0.43 0.38 0.31 0.26 0.28 0.38 0.51 0.48 0.37 0.35 0.28 0.28 0.21 0.23 0.36 0.44 0.38 0.30 0.22 0.22 0.22
0.22 0.10 0.17 0.22 0.36 0.43 0.42 0.50 0.55 0.54 0.56 0.56 0.53 0.60 0.57 0.48 0.44 0.39 0.37 0.38 0.33 0.30 0.31 0.33 0.34 0.37 0.39 0.40 0.50 0.47 0.40 0.44 0.37 0.23 0.23 0.28 0.34 0.42 0.32 0.21 0.20 0.16 0.14
0.06 0.08 0.11 0.16 0.25 0.29 0.33 0.31 0.21 0.27 0.39 0.55 0.56 0.59 0.48 0.50 0.42 0.38 0.38 0.42 0.49 0.51 0.50 0.46 0.41 0.37 0.38 0.39 0.41 0.53 0.48 0.41 0.30 0.22 0.21 0.26 0.36 0.40 0.34 0.25 0.16 0.12 0.15
0.08 0.12 0.19 0.22 0.22 0.22 0.32 0.36 0.30 0.30 0.37 0.41 0.42 0.39 0.30 0.35 0.37 0.44 0.48 0.45 0.37 0.45 0.51 0.48 0.41 0.42 0.37 0.38 0.60 0.67 0.58 0.49 0.50 0.50 0.31 0.30 0.30 0.34 0.30 0.24 0.19 0.22 0.29
0.08 0.06 0.13 0.23 0.34 0.41 0.44 0.43 0.39 0.37 0.35 0.32 0.28 0.34 0.28 0.27 0.26 0.25 0.40 0.63 0.58 0.57 0.48 0.48 0.58 0.54 0.54 0.57 0.60 0.64 0.67 0.70 0.66 0.55 0.34 0.29 0.31 0.29 0.28 0.30 0.32 0.32 0.39

GFSMW_prec_precacc_294.txt.gz
Total_Precipitation_Accumulation
1.01 1.24 0.89 0.81 0.91 0.85 0.88 0.71 0.61 0.72 0.95 1.11 0.99 0.99 1.26 1.72 1.88 1.43 1.19 1.13 1.06 1.07 1.00 0.83 0.69 0.52 0.34 0.26 0.26 0.34 0.53 0.74 0.71 0.63 0.48 0.32 0.22 0.24 0.29 0.31 0.32 0.31 0.28
0.89 1.29 1.70 0.90 0.88 1.50 1.77 1.37 1.11 1.01 0.94 1.07 1.00 0.90 1.00 1.20 1.63 1.90 1.50 1.43 1.38 1.29 1.05 0.89 0.88 0.75 0.68 0.60 0.60 0.53 0.56 0.60 0.77 0.76 0.61 0.51 0.43 0.36 0.20 0.16 0.19 0.23 0.27
0.60 1.05 1.84 1.39 1.25 1.72 1.87 1.62 1.51 1.54 1.46 1.48 1.88 1.58 1.60 1.48 1.70 2.11 1.91 1.78 1.54 1.46 1.65 1.97 1.65 1.14 1.16 1.26 1.30 1.36 1.34 1.14 0.92 0.81 0.87 0.61 0.42 0.32 0.36 0.25 0.21 0.21 0.21
0.38 0.60 0.95 1.32 1.45 1.02 1.03 1.53 2.55 2.98 2.12 1.91 2.77 3.41 3.11 2.94 2.71 2.93 2.66 2.11 1.84 1.72 1.88 2.22 2.82 3.28 2.84 2.01 1.71 1.57 1.43 1.53 1.39 1.35 1.09 0.91 0.65 0.49 0.35 0.25 0.29 0.35 0.38
0.34 0.35 0.56 0.83 0.79 0.73 0.77 0.94 1.48 2.35 2.43 2.47 2.68 3.18 3.05 2.43 2.15 2.20 2.78 2.81 2.55 2.09 1.89 1.93 2.04 2.04 2.23 2.70 2.47 2.01 1.90 1.79 1.55 1.30 1.07 0.97 0.92 0.93 0.82 0.46 0.27 0.29 0.35
0.16 0.32 0.31 0.46 0.55 0.67 0.78 0.70 1.00 1.46 2.17 2.43 2.43 2.64 2.88 3.15 2.70 2.20 2.40 2.27 1.90 1.85 1.74 1.58 1.49 1.50 1.53 1.63 1.99 2.01 1.74 1.66 1.72 1.68 1.57 1.30 1.21 1.00 1.13 1.04 0.67 0.58 0.44
0.30 0.37 0.59 0.56 0.66 0.78 0.60 0.61 0.90 1.03 1.50 1.69 2.08 2.20 1.79 2.04 2.14 1.98 1.93 2.04 2.00 1.76 1.68 1.56 1.60 1.51 1.52 1.56 1.64 1.77 1.70 1.53 1.41 1.37 1.42 1.61 1.63 1.55 1.56 1.55 1.16 0.83 0.54
0.55 0.51 0.81 1.02 1.05 0.88 0.85 0.56 0.82 0.91 0.90 0.91 0.97 1.35 1.58 1.95 1.88 1.68 1.58 1.55 1.45 1.56 1.90 1.82 1.79 1.87 1.85 1.83 1.85 1.87 1.88 1.79 1.72 1.74 1.68 1.62 1.64 1.83 1.97 2.04 2.09 1.93 1.21
0.91 0.79 0.86 1.20 1.12 0.89 0.99 0.92 0.88 0.98 0.81 0.84 0.54 0.48 0.57 0.70 0.85 0.90 0.91 1.02 1.29 1.22 1.34 1.47 1.39 1.41 1.44 1.41 1.49 1.50 1.45 1.59 1.67 1.58 1.51 1.51 1.37 1.42 1.59 1.90 2.33 2.97 2.66
1.11 0.97 0.90 0.92 0.86 0.72 0.88 0.94 0.81 0.61 0.57 0.66 0.59 0.25 0.28 0.32 0.39 0.31 0.28 0.30 0.45 0.61 0.72 0.85 0.91 0.98 1.06 1.21 1.31 1.32 1.39 1.52 1.58 1.64 1.72 1.71 1.67 1.66 1.51 1.49 1.72 2.06 2.53
0.84 0.76 0.69 0.63 0.58 0.42 0.60 0.85 0.73 0.61 0.51 0.56 0.72 0.45 0.34 0.32 0.34 0.28 0.13 0.14 0.13 0.16 0.18 0.18 0.27 0.35 0.40 0.54 0.76 0.92 1.10 1.31 1.53 1.85 2.12 2.26 2.34 2.49 2.47 2.58 2.75 2.91 3.14
0.56 0.54 0.56 0.53 0.34 0.47 0.71 1.23 1.11 0.76 0.50 0.51 0.58 0.73 0.57 0.47 0.41 0.39 0.21 0.17 0.19 0.20 0.19 0.18 0.20 0.25 0.27 0.28 0.27 0.33 0.41 0.51 0.63 0.86 1.11 1.21 1.34 1.58 1.69 1.90 2.10 2.46 2.94
0.23 0.31 0.45 0.76 0.26 0.49 0.80 1.23 1.16 0.77 0.53 0.58 0.54 0.71 0.94 0.77 0.66 0.48 0.39 0.27 0.30 0.39 0.58 0.41 0.34 0.31 0.28 0.24 0.27 0.32 0.42 0.54 0.65 0.75 0.82 0.94 1.05 1.09 1.10 1.17 1.27 1.36 1.53
0.24 0.27 0.17 0.17 0.29 0.79 0.95 0.96 1.27 1.09 0.86 0.75 0.70 0.65 0.98 0.95 0.86 0.69 0.66 0.55 0.48 0.48 0.64 1.03 0.64 0.58 0.56 0.49 0.39 0.38 0.40 0.47 0.63 0.65 0.72 0.77 0.95 1.13 1.30 1.66 1.87 1.76 1.71
0.15 0.14 0.14 0.22 0.31 1.05 0.98 1.23 1.26 1.55 1.35 1.03 0.97 0.89 0.68 0.92 0.82 0.67 0.87 0.78 0.62 0.68 0.60 0.63 0.68 0.60 0.52 0.72 0.65 0.55 0.62 0.62 0.84 1.17 1.16 1.30 1.42 1.58 1.47 1.31 1.21 1.35 1.40
0.13 0.10 0.17 0.24 0.33 0.75 0.96 0.98 1.47 1.91 1.70 1.44 1.16 1.04 0.67 0.78 0.92 0.87 0.87 0.78 0.72 0.87 0.70 0.73 0.67 0.65 0.74 1.29 1.28 1.05 1.00 1.03 0.96 1.36 1.49 1.51 1.85 1.46 1.52 1.49 1.42 1.37 1.39
0.14 0.13 0.21 0.60 0.36 0.58 0.91 1.14 1.44 1.56 1.74 1.99 1.60 1.15 0.70 0.71 0.67 0.57 0.59 0.54 0.59 0.75 0.76 0.71 0.81 0.74 0.83 1.30 1.37 1.22 0.82 0.97 1.11 0.96 0.99 0.86 0.93 1.05 0.88 1.05 1.04 1.00 0.96
0.15 0.40 0.59 0.60 0.40 0.76 1.31 1.19 1.52 1.20 1.45 2.02 1.77 1.46 1.12 0.99 0.93 0.80 0.80 0.66 0.70 0.80 0.85 0.86 1.06 1.19 1.44 1.50 1.45 1.34 0.84 0.77 0.88 0.68 0.58 0.53 0.54 0.63 0.63 0.66 0.75 0.78 0.76
0.49 0.49 0.64 0.75 0.59 0.66 0.94 0.98 1.14 1.33 1.68 2.14 2.15 1.91 1.58 1.52 1.62 1.68 1.45 1.24 1.21 1.21 1.22 1.09 1.07 1.12 1.36 1.30 1.36 0.99 0.77 0.68 0.64 0.54 0.49 0.52 0.47 0.66 0.62 0.52 0.55 0.57 0.57
0.51 0.70 0.91 0.92 0.71 0.68 0.87 1.36 1.90 1.74 1.70 1.62 1.68 1.66 1.56 1.31 1.29 1.21 1.35 1.28 1.15 1.13 1.12 1.06 0.97 0.99 0.88 1.03 1.08 0.96 0.62 0.49 0.47 0.40 0.41 0.55 0.61 0.79 0.65 0.48 0.39 0.43 0.35
0.43 0.47 0.66 0.76 0.72 0.82 1.34 1.65 1.77 1.77 1.73 1.73 1.57 1.42 1.25 1.34 1.21 1.16 1.01 1.02 0.90 0.76 0.74 0.67 0.60 0.47 0.41 0.42 0.57 0.49 0.40 0.42 0.40 0.30 0.28 0.35 0.58 0.72 0.71 0.64 0.49 0.53 0.53
0.30 0.20 0.47 0.98 1.20 1.10 1.17 1.10 1.09 1.08 0.91 0.96 0.85 0.91 0.81 0.80 0.84 0.65 0.70 0.68 0.59 0.52 0.43 0.38 0.31 0.26 0.28 0.38 0.51 0.49 0.38 0.37 0.28 0.29 0.30 0.42 0.62 0.73 0.66 0.51 0.41 0.38 0.36
0.22 0.10 0.17 0.23 0.36 0.43 0.42 0.50 0.55 0.54 0.56 0.56 0.53 0.60 0.57 0.48 0.44 0.39 0.37 0.38 0.33 0.30 0.31 0.33 0.34 0.37 0.39 0.40 0.50 0.48 0.41 0.46 0.40 0.32 0.39 0.48 0.53 0.58 0.46 0.31 0.30 0.24 0.17
0.07 0.08 0.12 0.16 0.25 0.29 0.33 0.31 0.21 0.27 0.39 0.55 0.56 0.59 0.48 0.50 0.42 0.38 0.38 0.42 0.49 0.51 0.50 0.46 0.41 0.37 0.38 0.40 0.41 0.53 0.48 0.43 0.34 0.31 0.32 0.39 0.50 0.53 0.45 0.34 0.24 0.16 0.15
0.08 0.13 0.19 0.23 0.22 0.22 0.32 0.36 0.30 0.30 0.37 0.41 0.42 0.39 0.30 0.35 0.37 0.44 0.48 0.45 0.37 0.45 0.52 0.49 0.42 0.43 0.38 0.38 0.61 0.68 0.61 0.52 0.57 0.65 0.40 0.38 0.40 0.43 0.38 0.32 0.25 0.24 0.29
0.08 0.06 0.13 0.23 0.34 0.41 0.44 0.43 0.39 0.37 0.35 0.32 0.28 0.34 0.28 0.27 0.26 0.25 0.40 0.63 0.58 0.57 0.48 0.48 0.59 0.54 0.54 0.58 0.61 0.65 0.70 0.78 0.77 0.73 0.47 0.39 0.38 0.34 0.33 0.33 0.34 0.33 0.39

GFSMW_prec_precacc_300.txt.gz
Total_Precipitation_Accumulation
1.01 1.24 0.89 0.81 0.91 0.85 0.88 0.71 0.61 0.72 0.95 1.11 0.99 0.99 1.26 1.72 1.88 1.43 1.19 1.13 1.08 1.08 1.00 0.83 0.69 0.52 0.34 0.26 0.26 0.34 0.53 0.74 0.71 0.63 0.48 0.32 0.22 0.24 0.29 0.31 0.32 0.31 0.28
0.89 1.29 1.70 0.90 0.88 1.50 1.77 1.37 1.11 1.01 0.94 1.07 1.00 0.90 1.00 1.20 1.63 1.90 1.50 1.43 1.39 1.29 1.05 0.89 0.88 0.75 0.68 0.60 0.60 0.53 0.56 0.60 0.77 0.76 0.61 0.51 0.43 0.36 0.20 0.16 0.19 0.23 0.27
0.60 1.05 1.84 1.39 1.25 1.72 1.87 1.62 1.51 1.54 1.46 1.48 1.89 1.58 1.60 1.48 1.70 2.11 1.91 1.78 1.54 1.46 1.65 1.97 1.65 1.14 1.16 1.26 1.30 1.36 1.34 1.14 0.92 0.81 0.87 0.61 0.42 0.32 0.36 0.25 0.21 0.21 0.21
0.38 0.60 0.95 1.32 1.45 1.02 1.03 1.53 2.55 2.98 2.12 1.91 2.78 3.41 3.12 2.95 2.71 2.93 2.66 2.11 1.84 1.72 1.88 2.22 2.82 3.28 2.84 2.01 1.71 1.57 1.43 1.53 1.39 1.35 1.09 0.91 0.65 0.49 0.35 0.25 0.29 0.35 0.38
0.34 0.35 0.56 0.83 0.79 0.73 0.77 0.94 1.48 2.35 2.44 2.47 2.68 3.18 3.06 2.44 2.15 2.20 2.78 2.81 2.55 2.09 1.89 1.93 2.04 2.04 2.23 2.70 2.47 2.01 1.90 1.79 1.55 1.30 1.07 0.97 0.92 0.93 0.82 0.46 0.27 0.29 0.35
0.16 0.32 0.31 0.46 0.55 0.67 0.78 0.70 1.00 1.46 2.17 2.44 2.43 2.64 2.88 3.15 2.70 2.20 2.40 2.27 1.90 1.85 1.74 1.58 1.49 1.50 1.53 1.63 1.99 2.01 1.74 1.66 1.72 1.68 1.57 1.30 1.21 1.00 1.13 1.04 0.67 0.58 0.44
0.30 0.37 0.59 0.56 0.66 0.78 0.60 0.62 0.90 1.04 1.51 1.69 2.09 2.20 1.79 2.04 2.14 1.98 1.93 2.04 2.00 1.76 1.68 1.56 1.60 1.51 1.52 1.56 1.64 1.77 1.70 1.53 1.41 1.37 1.42 1.61 1.63 1.55 1.56 1.55 1.16 0.83 0.54
0.55 0.51 0.81 1.02 1.05 0.88 0.85 0.57 0.83 0.93 0.91 0.92 0.98 1.36 1.58 1.95 1.88 1.68 1.58 1.55 1.45 1.56 1.90 1.82 1.79 1.87 1.85 1.83 1.85 1.87 1.88 1.79 1.72 1.74 1.68 1.62 1.64 1.83 1.98 2.04 2.09 1.93 1.21
0.91 0.79 0.86 1.20 1.12 0.89 0.99 0.92 0.88 0.99 0.81 0.84 0.54 0.48 0.57 0.70 0.85 0.90 0.91 1.02 1.29 1.22 1.34 1.47 1.39 1.41 1.44 1.41 1.49 1.50 1.45 1.59 1.67 1.58 1.51 1.51 1.37 1.42 1.59 1.91 2.34 2.98 2.67
1.11 0.97 0.90 0.92 0.86 0.72 0.88 0.94 0.81 0.61 0.57 0.67 0.59 0.25 0.28 0.32 0.39 0.31 0.28 0.30 0.45 0.61 0.72 0.85 0.91 0.98 1.06 1.21 1.31 1.32 1.39 1.52 1.58 1.64 1.72 1.71 1.67 1.66 1.51 1.49 1.73 2.07 2.54
0.84 0.76 0.69 0.63 0.58 0.42 0.60 0.85 0.73 0.61 0.51 0.56 0.72 0.45 0.34 0.32 0.34 0.28 0.13 0.14 0.13 0.16 0.18 0.18 0.27 0.35 0.40 0.54 0.76 0.92 1.10 1.31 1.53 1.85 2.12 2.26 2.34 2.49 2.47 2.58 2.76 2.91 3.14
0.56 0.54 0.56 0.53 0.34 0.47 0.71 1.23 1.11 0.76 0.50 0.51 0.58 0.73 0.57 0.47 0.41 0.39 0.21 0.17 0.19 0.20 0.19 0.18 0.20 0.25 0.27 0.28 0.27 0.33 0.41 0.51 0.63 0.86 1.11 1.21 1.34 1.58 1.69 1.91 2.10 2.46 2.95
0.23 0.31 0.45 0.76 0.26 0.49 0.80 1.23 1.16 0.77 0.53 0.58 0.54 0.71 0.94 0.77 0.66 0.48 0.39 0.27 0.30 0.39 0.58 0.41 0.34 0.31 0.28 0.24 0.27 0.32 0.42 0.54 0.65 0.75 0.82 0.94 1.05 1.09 1.10 1.17 1.27 1.36 1.53
0.24 0.27 0.17 0.17 0.29 0.79 0.95 0.96 1.27 1.09 0.86 0.75 0.70 0.65 0.98 0.95 0.86 0.69 0.66 0.55 0.48 0.48 0.64 1.03 0.64 0.58 0.56 0.49 0.39 0.38 0.40 0.47 0.63 0.65 0.72 0.77 0.95 1.13 1.30 1.66 1.87 1.76 1.72
0.15 0.14 0.14 0.22 0.31 1.05 0.98 1.23 1.26 1.55 1.35 1.03 0.97 0.89 0.68 0.92 0.82 0.67 0.87 0.78 0.62 0.68 0.60 0.63 0.68 0.60 0.52 0.72 0.65 0.55 0.62 0.62 0.84 1.17 1.16 1.30 1.42 1.58 1.47 1.31 1.21 1.36 1.41
0.13 0.10 0.17 0.24 0.33 0.75 0.96 0.98 1.47 1.91 1.70 1.44 1.16 1.04 0.67 0.78 0.92 0.87 0.87 0.78 0.72 0.87 0.70 0.73 0.67 0.65 0.74 1.29 1.28 1.05 1.00 1.03 0.96 1.36 1.49 1.51 1.85 1.46 1.52 1.49 1.42 1.38 1.40
0.14 0.13 0.21 0.60 0.36 0.58 0.91 1.14 1.44 1.56 1.74 1.99 1.60 1.15 0.70 0.71 0.67 0.57 0.59 0.54 0.59 0.75 0.76 0.71 0.81 0.74 0.83 1.30 1.37 1.22 0.82 0.97 1.11 0.96 0.99 0.86 0.93 1.05 0.88 1.05 1.04 1.00 0.97
0.15 0.40 0.59 0.60 0.40 0.76 1.31 1.19 1.52 1.20 1.45 2.02 1.77 1.46 1.12 0.99 0.93 0.80 0.80 0.66 0.70 0.80 0.85 0.86 1.06 1.19 1.44 1.50 1.45 1.34 0.84 0.77 0.88 0.68 0.58 0.53 0.54 0.63 0.63 0.66 0.75 0.78 0.76
0.49 0.49 0.64 0.75 0.59 0.66 0.94 0.98 1.14 1.33 1.68 2.14 2.15 1.91 1.58 1.52 1.62 1.68 1.45 1.24 1.21 1.21 1.22 1.09 1.07 1.12 1.36 1.30 1.36 0.99 0.77 0.68 0.64 0.54 0.49 0.52 0.47 0.66 0.63 0.52 0.56 0.57 0.58
0.51 0.70 0.91 0.92 0.71 0.68 0.87 1.36 1.90 1.74 1.70 1.62 1.68 1.66 1.56 1.31 1.29 1.21 1.35 1.28 1.15 1.13 1.12 1.06 0.97 0.99 0.88 1.03 1.08 0.96 0.62 0.49 0.47 0.40 0.41 0.56 0.61 0.79 0.65 0.49 0.39 0.43 0.38
0.43 0.47 0.66 0.76 0.72 0.82 1.34 1.65 1.77 1.77 1.73 1.73 1.57 1.42 1.25 1.34 1.21 1.16 1.01 1.02 0.90 0.76 0.74 0.67 0.60 0.47 0.41 0.42 0.57 0.49 0.40 0.42 0.40 0.30 0.28 0.35 0.58 0.73 0.72 0.66 0.50 0.55 0.57
0.30 0.20 0.47 0.98 1.20 1.10 1.17 1.10 1.09 1.08 0.91 0.96 0.85 0.91 0.81 0.80 0.84 0.65 0.70 0.68 0.59 0.52 0.43 0.38 0.31 0.26 0.28 0.38 0.51 0.49 0.38 0.37 0.29 0.30 0.30 0.42 0.62 0.74 0.67 0.53 0.43 0.42 0.41
0.22 0.10 0.17 0.23 0.36 0.43 0.43 0.51 0.57 0.56 0.57 0.57 0.54 0.60 0.57 0.48 0.44 0.39 0.37 0.38 0.33 0.30 0.31 0.33 0.34 0.37 0.39 0.40 0.50 0.48 0.41 0.46 0.40 0.32 0.39 0.49 0.53 0.59 0.47 0.34 0.34 0.29 0.22
0.07 0.08 0.12 0.16 0.26 0.31 0.35 0.34 0.23 0.29 0.40 0.55 0.56 0.59 0.48 0.50 0.42 0.38 0.38 0.42 0.49 0.51 0.50 0.46 0.41 0.37 0.38 0.40 0.41 0.53 0.48 0.44 0.34 0.31 0.33 0.40 0.51 0.55 0.47 0.39 0.29 0.20 0.24
0.08 0.14 0.20 0.24 0.24 0.24 0.34 0.37 0.31 0.30 0.37 0.41 0.42 0.39 0.30 0.35 0.37 0.44 0.48 0.45 0.37 0.45 0.52 0.49 0.42 0.43 0.38 0.38 0.61 0.68 0.61 0.52 0.58 0.66 0.40 0.38 0.40 0.45 0.43 0.41 0.36 0.36 0.45
0.10 0.08 0.16 0.26 0.36 0.42 0.45 0.43 0.39 0.37 0.35 0.32 0.28 0.34 0.28 0.27 0.26 0.25 0.40 0.63 0.58 0.57 0.48 0.48 0.59 0.54 0.54 0.58 0.61 0.65 0.70 0.79 0.78 0.74 0.48 0.40 0.42 0.43 0.44 0.49 0.54 0.54 0.58

GFSMW_prec_precacc_303.txt.gz
Total_Precipitation_Accumulation
1.01 1.24 0.89 0.81 0.91 0.85 0.88 0.71 0.61 0.72 0.95 1.11 0.99 0.99 1.26 1.72 1.88 1.43 1.19 1.13 1.08 1.08 1.00 0.83 0.69 0.52 0.34 0.26 0.26 0.34 0.53 0.74 0.71 0.63 0.48 0.32 0.22 0.24 0.29 0.31 0.32 0.31 0.28
0.89 1.29 1.70 0.90 0.88 1.50 1.77 1.37 1.11 1.01 0.94 1.07 1.00 0.90 1.00 1.20 1.63 1.90 1.50 1.43 1.39 1.29 1.05 0.89 0.88 0.75 0.68 0.60 0.60 0.53 0.56 0.60 0.77 0.76 0.61 0.51 0.43 0.36 0.20 0.16 0.19 0.23 0.27
0.60 1.05 1.84 1.39 1.25 1.72 1.87 1.62 1.51 1.54 1.46 1.48 1.89 1.58 1.60 1.48 1.70 2.11 1.91 1.78 1.54 1.46 1.65 1.97 1.65 1.14 1.16 1.26 1.30 1.36 1.34 1.14 0.92 0.81 0.87 0.61 0.42 0.32 0.36 0.25 0.21 0.21 0.21
0.38 0.60 0.95 1.32 1.45 1.02 1.03 1.53 2.55 2.98 2.12 1.91 2.78 3.41 3.12 2.95 2.71 2.93 2.66 2.11 1.84 1.72 1.88 2.22 2.82 3.28 2.84 2.01 1.71 1.57 1.43 1.53 1.39 1.35 1.09 0.91 0.65 0.49 0.35 0.25 0.29 0.35 0.38
0.34 0.35 0.56 0.83 0.79 0.73 0.77 0.94 1.48 2.35 2.44 2.47 2.68 3.18 3.06 2.44 2.15 2.20 2.78 2.81 2.55 2.09 1.89 1.93 2.04 2.04 2.23 2.70 2.47 2.01 1.90 1.79 1.55 1.30 1.07 0.97 0.92 0.93 0.82 0.46 0.27 0.29 0.35
0.16 0.32 0.31 0.46 0.55 0.67 0.78 0.70 1.00 1.46 2.17 2.44 2.43 2.65 2.89 3.15 2.70 2.20 2.40 2.27 1.90 1.85 1.74 1.58 1.49 1.50 1.53 1.63 1.99 2.01 1.74 1.66 1.72 1.68 1.57 1.30 1.21 1.00 1.13 1.05 0.67 0.58 0.44
0.30 0.37 0.59 0.56 0.66 0.78 0.60 0.62 0.90 1.04 1.51 1.70 2.09 2.20 1.79 2.04 2.14 1.98 1.93 2.04 2.00 1.76 1.68 1.56 1.60 1.51 1.52 1.56 1.64 1.77 1.70 1.53 1.41 1.37 1.42 1.61 1.63 1.56 1.56 1.56 1.16 0.83 0.54
0.55 0.51 0.81 1.02 1.05 0.88 0.85 0.57 0.83 0.93 0.91 0.93 0.98 1.36 1.58 1.95 1.88 1.68 1.58 1.55 1.45 1.56 1.90 1.82 1.79 1.87 1.85 1.83 1.85 1.87 1.88 1.79 1.72 1.74 1.68 1.62 1.64 1.83 1.98 2.05 2.09 1.93 1.21
0.91 0.79 0.86 1.20 1.12 0.89 0.99 0.92 0.89 0.99 0.82 0.85 0.55 0.49 0.58 0.71 0.85 0.90 0.91 1.02 1.29 1.22 1.34 1.47 1.39 1.41 1.44 1.41 1.49 1.50 1.45 1.59 1.67 1.58 1.51 1.51 1.37 1.42 1.59 1.91 2.34 2.98 2.67
1.11 0.97 0.90 0.92 0.86 0.72 0.88 0.94 0.81 0.62 0.58 0.67 0.60 0.26 0.29 0.32 0.39 0.31 0.28 0.30 0.45 0.61 0.72 0.85 0.91 0.98 1.06 1.21 1.31 1.32 1.39 1.52 1.58 1.64 1.72 1.71 1.67 1.66 1.51 1.49 1.73 2.07 2.54
0.84 0.76 0.69 0.63 0.58 0.42 0.60 0.85 0.73 0.61 0.51 0.57 0.73 0.45 0.34 0.32 0.34 0.28 0.13 0.14 0.13 0.16 0.18 0.18 0.27 0.35 0.40 0.54 0.76 0.92 1.10 1.31 1.53 1.85 2.12 2.26 2.34 2.49 2.47 2.58 2.76 2.91 3.14
0.56 0.54 0.56 0.53 0.34 0.47 0.71 1.23 1.11 0.76 0.50 0.51 0.58 0.73 0.57 0.47 0.41 0.39 0.21 0.17 0.19 0.20 0.19 0.18 0.20 0.25 0.27 0.28 0.27 0.33 0.41 0.51 0.63 0.86 1.11 1.21 1.34 1.58 1.69 1.91 2.10 2.46 2.95
0.23 0.31 0.45 0.76 0.26 0.49 0.80 1.23 1.16 0.77 0.53 0.58 0.54 0.71 0.94 0.77 0.66 0.48 0.39 0.27 0.30 0.39 0.58 0.41 0.34 0.31 0.28 0.24 0.27 0.32 0.42 0.54 0.65 0.75 0.82 0.94 1.05 1.09 1.10 1.17 1.27 1.36 1.53
0.24 0.27 0.17 0.17 0.29 0.79 0.95 0.96 1.27 1.09 0.86 0.75 0.70 0.65 0.98 0.95 0.86 0.69 0.66 0.55 0.48 0.48 0.64 1.03 0.64 0.58 0.56 0.49 0.39 0.38 0.40 0.47 0.63 0.65 0.72 0.77 0.95 1.13 1.30 1.66 1.87 1.76 1.72
0.15 0.14 0.14 0.22 0.31 1.05 0.98 1.23 1.26 1.55 1.35 1.03 0.97 0.89 0.68 0.92 0.82 0.67 0.87 0.78 0.62 0.68 0.60 0.63 0.68 0.60 0.52 0.72 0.65 0.55 0.62 0.62 0.84 1.17 1.16 1.30 1.42 1.58 1.47 1.31 1.21 1.36 1.41
0.13 0.10 0.17 0.24 0.33 0.75 0.96 0.98 1.47 1.91 1.70 1.44 1.16 1.04 0.67 0.78 0.92 0.87 0.87 0.78 0.72 0.87 0.70 0.73 0.67 0.65 0.74 1.29 1.28 1.05 1.00 1.03 0.96 1.36 1.49 1.51 1.85 1.46 1.52 1.49 1.42 1.39 1.41
0.14 0.13 0.21 0.60 0.36 0.58 0.91 1.14 1.44 1.56 1.74 1.99 1.60 1.15 0.70 0.71 0.67 0.57 0.59 0.54 0.59 0.75 0.76 0.71 0.81 0.74 0.83 1.30 1.37 1.22 0.82 0.97 1.11 0.96 0.99 0.86 0.93 1.05 0.88 1.05 1.04 1.00 0.98
0.15 0.40 0.59 0.60 0.40 0.76 1.31 1.19 1.52 1.20 1.45 2.02 1.77 1.46 1.12 0.99 0.93 0.80 0.80 0.66 0.70 0.80 0.85 0.86 1.06 1.19 1.44 1.50 1.45 1.34 0.84 0.77 0.88 0.68 0.58 0.53 0.54 0.63 0.63 0.66 0.75 0.78 0.77
0.49 0.49 0.64 0.75 0.59 0.66 0.94 0.98 1.14 1.33 1.68 2.14 2.15 1.91 1.58 1.52 1.62 1.68 1.45 1.24 1.21 1.21 1.22 1.09 1.07 1.12 1.36 1.30 1.36 0.99 0.77 0.68 0.64 0.54 0.49 0.52 0.47 0.66 0.63 0.53 0.56 0.57 0.58
0.51 0.70 0.91 0.92 0.71 0.68 0.87 1.36 1.90 1.74 1.70 1.62 1.68 1.66 1.56 1.31 1.29 1.21 1.35 1.28 1.15 1.13 1.12 1.06 0.97 0.99 0.88 1.03 1.08 0.96 0.62 0.49 0.47 0.40 0.41 0.56 0.61 0.79 0.65 0.49 0.40 0.43 0.38
0.43 0.47 0.66 0.76 0.72 0.82 1.34 1.65 1.77 1.77 1.73 1.73 1.57 1.42 1.25 1.34 1.21 1.16 1.01 1.02 0.90 0.76 0.74 0.67 0.60 0.47 0.41 0.42 0.57 0.49 0.40 0.42 0.40 0.30 0.28 0.35 0.58 0.73 0.72 0.66 0.50 0.55 0.57
0.30 0.20 0.47 0.98 1.20 1.10 1.17 1.10 1.09 1.08 0.91 0.96 0.85 0.91 0.81 0.80 0.84 0.65 0.70 0.68 0.59 0.52 0.43 0.38 0.31 0.26 0.28 0.38 0.51 0.49 0.38 0.37 0.29 0.30 0.30 0.42 0.62 0.74 0.67 0.53 0.44 0.43 0.42
0.22 0.10 0.17 0.23 0.36 0.43 0.43 0.51 0.57 0.56 0.57 0.57 0.54 0.61 0.57 0.48 0.44 0.39 0.37 0.38 0.33 0.30 0.31 0.33 0.34 0.37 0.39 0.40 0.50 0.48 0.41 0.46 0.40 0.32 0.39 0.49 0.53 0.59 0.47 0.34 0.35 0.30 0.23
0.07 0.08 0.12 0.16 0.26 0.31 0.35 0.34 0.23 0.29 0.40 0.56 0.57 0.60 0.49 0.51 0.42 0.38 0.38 0.42 0.49 0.51 0.50 0.46 0.41 0.37 0.38 0.40 0.41 0.53 0.48 0.44 0.34 0.31 0.33 0.40 0.51 0.55 0.48 0.39 0.29 0.20 0.25
0.08 0.14 0.20 0.24 0.24 0.24 0.34 0.38 0.32 0.31 0.38 0.42 0.42 0.40 0.30 0.35 0.37 0.44 0.48 0.45 0.37 0.45 0.52 0.49 0.42 0.43 0.38 0.38 0.61 0.68 0.61 0.52 0.58 0.66 0.40 0.38 0.40 0.45 0.43 0.41 0.36 0.37 0.46
0.10 0.08 0.16 0.26 0.37 0.43 0.46 0.45 0.41 0.38 0.35 0.32 0.28 0.34 0.28 0.27 0.26 0.25 0.40 0.63 0.58 0.57 0.48 0.48 0.59 0.54 0.54 0.58 0.61 0.65 0.70 0.79 0.78 0.74 0.48 0.41 0.42 0.43 0.45 0.49 0.54 0.55 0.59

GFSMW_prec_precacc_309.txt.gz
Total_Precipitation_Accumulation
1.01 1.24 0.89 0.81 0.91 0.85 0.88 0.71 0.61 0.72 0.95 1.11 0.99 0.99 1.26 1.72 1.88 1.43 1.19 1.13 1.08 1.08 1.00 0.83 0.69 0.52 0.34 0.26 0.26 0.34 0.53 0.74 0.71 0.63 0.48 0.32 0.22 0.24 0.29 0.31 0.32 0.31 0.28
0.89 1.29 1.70 0.90 0.88 1.50 1.77 1.37 1.11 1.01 0.94 1.07 1.00 0.90 1.00 1.20 1.63 1.90 1.50 1.43 1.39 1.29 1.05 0.89 0.88 0.75 0.68 0.60 0.60 0.53 0.56 0.60 0.77 0.76 0.61 0.51 0.43 0.36 0.20 0.16 0.19 0.23 0.27
0.60 1.05 1.84 1.39 1.25 1.72 1.87 1.62 1.51 1.54 1.46 1.48 1.89 1.58 1.60 1.48 1.70 2.11 1.91 1.78 1.54 1.46 1.65 1.97 1.65 1.14 1.16 1.26 1.30 1.36 1.34 1.14 0.92 0.81 0.87 0.61 0.42 0.32 0.36 0.25 0.21 0.21 0.21
0.38 0.60 0.95 1.32 1.45 1.02 1.03 1.53 2.55 2.98 2.12 1.91 2.78 3.41 3.12 2.95 2.71 2.93 2.66 2.11 1.84 1.72 1.88 2.22 2.82 3.28 2.84 2.01 1.71 1.57 1.43 1.53 1.39 1.35 1.09 0.91 0.65 0.49 0.35 0.25 0.29 0.35 0.38
0.34 0.35 0.56 0.83 0.79 0.73 0.77 0.94 1.48 2.35 2.44 2.47 2.68 3.18 3.06 2.44 2.15 2.20 2.78 2.81 2.55 2.09 1.89 1.93 2.04 2.04 2.23 2.70 2.47 2.01 1.90 1.79 1.55 1.30 1.07 0.97 0.92 0.93 0.82 0.46 0.27 0.29 0.35
0.16 0.32 0.31 0.46 0.55 0.67 0.78 0.70 1.00 1.46 2.18 2.44 2.43 2.65 2.89 3.15 2.70 2.20 2.40 2.27 1.90 1.85 1.74 1.58 1.49 1.50 1.53 1.63 1.99 2.01 1.74 1.66 1.72 1.68 1.57 1.30 1.21 1.00 1.14 1.05 0.67 0.58 0.44
0.30 0.37 0.59 0.56 0.66 0.78 0.60 0.62 0.90 1.04 1.51 1.70 2.10 2.21 1.80 2.05 2.14 1.98 1.93 2.04 2.00 1.76 1.68 1.56 1.60 1.51 1.52 1.56 1.64 1.77 1.70 1.53 1.41 1.37 1.42 1.61 1.63 1.56 1.56 1.56 1.16 0.83 0.54
0.55 0.51 0.81 1.02 1.05 0.88 0.85 0.57 0.83 0.93 0.92 0.93 0.99 1.37 1.59 1.96 1.88 1.68 1.58 1.55 1.45 1.56 1.90 1.82 1.79 1.87 1.85 1.83 1.85 1.87 1.88 1.79 1.72 1.74 1.68 1.62 1.64 1.83 1.98 2.05 2.09 1.93 1.21
0.91 0.79 0.86 1.20 1.12 0.89 0.99 0.92 0.89 0.99 0.82 0.85 0.55 0.49 0.58 0.71 0.85 0.90 0.91 1.02 1.29 1.22 1.34 1.47 1.39 1.41 1.44 1.41 1.49 1.50 1.45 1.59 1.67 1.58 1.51 1.51 1.37 1.42 1.59 1.91 2.34 2.98 2.67
1.11 0.97 0.90 0.92 0.86 0.72 0.88 0.94 0.81 0.62 0.58 0.68 0.61 0.26 0.30 0.33 0.39 0.31 0.28 0.30 0.45 0.61 0.72 0.85 0.91 0.98 1.06 1.21 1.31 1.32 1.39 1.52 1.58 1.64 1.72 1.71 1.67 1.66 1.51 1.49 1.73 2.07 2.54
0.84 0.76 0.69 0.63 0.58 0.42 0.60 0.85 0.73 0.61 0.52 0.57 0.74 0.46 0.35 0.32 0.35 0.28 0.13 0.14 0.13 0.16 0.18 0.18 0.27 0.35 0.40 0.54 0.76 0.92 1.10 1.31 1.53 1.85 2.12 2.26 2.34 2.49 2.47 2.58 2.76 2.91 3.14
0.56 0.54 0.56 0.53 0.34 0.47 0.71 1.23 1.11 0.76 0.50 0.51 0.59 0.74 0.58 0.48 0.43 0.41 0.22 0.18 0.19 0.20 0.19 0.18 0.20 0.25 0.27 0.28 0.27 0.33 0.41 0.51 0.63 0.86 1.11 1.21 1.34 1.58 1.69 1.91 2.10 2.46 2.95
0.23 0.31 0.45 0.76 0.26 0.49 0.80 1.23 1.16 0.77 0.53 0.59 0.55 0.72 0.96 0.79 0.68 0.48 0.40 0.28 0.31 0.39 0.58 0.41 0.34 0.31 0.28 0.24 0.27 0.32 0.42 0.54 0.65 0.75 0.82 0.94 1.05 1.09 1.10 1.17 1.27 1.36 1.53
0.24 0.27 0.17 0.17 0.29 0.79 0.95 0.96 1.27 1.09 0.86 0.75 0.71 0.66 0.99 0.97 0.86 0.70 0.66 0.55 0.49 0.48 0.64 1.03 0.64 0.58 0.56 0.49 0.39 0.38 0.40 0.47 0.63 0.65 0.72 0.77 0.95 1.13 1.30 1.66 1.87 1.76 1.72
0.15 0.14 0.14 0.22 0.31 1.05 0.98 1.23 1.26 1.55 1.35 1.04 0.98 0.90 0.69 0.92 0.82 0.67 0.87 0.79 0.62 0.68 0.60 0.63 0.68 0.60 0.52 0.72 0.65 0.55 0.62 0.62 0.84 1.17 1.16 1.30 1.42 1.58 1.47 1.31 1.21 1.36 1.41
0.13 0.10 0.17 0.24 0.33 0.75 0.96 0.98 1.47 1.91 1.70 1.44 1.16 1.04 0.68 0.78 0.93 0.87 0.87 0.78 0.72 0.87 0.70 0.73 0.67 0.65 0.74 1.29 1.28 1.05 1.00 1.03 0.96 1.36 1.49 1.51 1.85 1.46 1.52 1.49 1.42 1.39 1.41
0.14 0.13 0.21 0.60 0.36 0.58 0.91 1.14 1.44 1.56 1.74 1.99 1.60 1.15 0.70 0.71 0.67 0.57 0.59 0.54 0.59 0.75 0.77 0.71 0.81 0.74 0.83 1.30 1.37 1.22 0.82 0.97 1.11 0.96 0.99 0.86 0.93 1.05 0.88 1.05 1.04 1.01 0.98
0.15 0.40 0.59 0.60 0.40 0.76 1.31 1.19 1.52 1.20 1.45 2.02 1.77 1.46 1.12 0.99 0.93 0.80 0.80 0.66 0.70 0.80 0.85 0.86 1.06 1.19 1.44 1.50 1.45 1.34 0.84 0.77 0.88 0.68 0.58 0.53 0.54 0.63 0.63 0.66 0.75 0.78 0.77
0.49 0.49 0.64 0.75 0.59 0.66 0.94 0.98 1.14 1.33 1.68 2.14 2.15 1.91 1.58 1.52 1.62 1.68 1.45 1.24 1.21 1.21 1.22 1.09 1.07 1.12 1.36 1.30 1.36 0.99 0.77 0.68 0.64 0.54 0.49 0.52 0.47 0.66 0.63 0.53 0.56 0.57 0.58
0.51 0.70 0.91 0.92 0.71 0.68 0.87 1.36 1.90 1.74 1.70 1.62 1.68 1.66 1.56 1.31 1.29 1.21 1.35 1.28 1.15 1.13 1.12 1.06 0.97 0.99 0.88 1.03 1.08 0.96 0.62 0.49 0.47 0.40 0.41 0.56 0.61 0.79 0.65 0.49 0.40 0.43 0.38
0.43 0.47 0.66 0.76 0.72 0.82 1.34 1.65 1.77 1.77 1.73 1.73 1.57 1.42 1.25 1.34 1.21 1.16 1.01 1.02 0.90 0.76 0.74 0.67 0.60 0.47 0.41 0.42 0.57 0.49 0.40 0.42 0.40 0.30 0.28 0.35 0.58 0.73 0.72 0.66 0.50 0.55 0.58
0.30 0.20 0.47 0.98 1.20 1.10 1.17 1.10 1.09 1.08 0.91 0.96 0.85 0.91 0.81 0.80 0.84 0.65 0.70 0.68 0.59 0.52 0.43 0.38 0.31 0.26 0.28 0.38 0.51 0.49 0.38 0.37 0.29 0.30 0.30 0.42 0.62 0.74 0.68 0.53 0.44 0.44 0.43
0.22 0.10 0.17 0.23 0.36 0.43 0.43 0.51 0.57 0.56 0.57 0.57 0.54 0.61 0.57 0.48 0.44 0.40 0.37 0.38 0.33 0.30 0.31 0.33 0.34 0.37 0.39 0.40 0.50 0.48 0.41 0.46 0.40 0.32 0.39 0.49 0.53 0.59 0.47 0.34 0.35 0.31 0.24
0.07 0.08 0.12 0.16 0.26 0.31 0.35 0.34 0.23 0.29 0.40 0.56 0.57 0.60 0.49 0.51 0.43 0.38 0.38 0.42 0.49 0.51 0.50 0.46 0.41 0.37 0.38 0.40 0.41 0.53 0.48 0.44 0.34 0.31 0.33 0.40 0.51 0.55 0.48 0.39 0.30 0.20 0.25
0.08 0.14 0.20 0.24 0.24 0.24 0.34 0.38 0.32 0.31 0.38 0.42 0.43 0.40 0.31 0.36 0.38 0.44 0.48 0.45 0.37 0.45 0.52 0.49 0.42 0.43 0.38 0.38 0.61 0.68 0.61 0.52 0.58 0.66 0.40 0.38 0.40 0.45 0.43 0.41 0.36 0.37 0.46
0.10 0.08 0.16 0.26 0.37 0.43 0.46 0.45 0.41 0.38 0.36 0.33 0.29 0.35 0.29 0.28 0.27 0.26 0.40 0.63 0.58 0.57 0.48 0.48 0.59 0.54 0.54 0.58 0.61 0.65 0.70 0.79 0.78 0.75 0.48 0.41 0.43 0.43 0.45 0.50 0.54 0.55 0.60